| time (UTC) | temp F | wind direction | speed knots | gust knots | rain 1hr in | rain 24hr in | rain mn in | humidity % | barometer mb |
| 20260507060835 | 48 | 13 | 2.6 | 4.3 | 0.00 | 0.00 | 0.00 | 71 | 1022.0 |
| 20260507060332 | 48 | 337 | 3.5 | 4.3 | 0.00 | 0.00 | 0.00 | 71 | 1022.2 |
| 20260507055828 | 48 | 37 | 6.1 | 6.1 | 0.00 | 0.00 | 0.00 | 71 | 1021.9 |
| 20260507055323 | 48 | 28 | 1.7 | 2.6 | 0.00 | 0.00 | 0.00 | 71 | 1022.0 |
| 20260507054820 | 48 | 28 | 1.7 | 2.6 | 0.00 | 0.00 | 0.00 | 71 | 1021.7 |
| 20260507054316 | 48 | 76 | 2.6 | 3.5 | 0.00 | 0.00 | 0.00 | 71 | 1021.7 |
| 20260507053814 | 48 | 29 | 0.0 | 1.7 | 0.00 | 0.00 | 0.00 | 71 | 1021.9 |
| 20260507053312 | 48 | 29 | 0.9 | 0.9 | 0.00 | 0.00 | 0.00 | 71 | 1022.0 |
| 20260507052811 | 48 | 3 | 2.6 | 2.6 | 0.00 | 0.00 | 0.00 | 71 | 1021.7 |
| 20260507052307 | 48 | 0 | 0.9 | 0.9 | 0.00 | 0.00 | 0.00 | 71 | 1021.8 |
| 20260507051805 | 49 | 7 | 0.0 | 0.0 | 0.00 | 0.00 | 0.00 | 71 | 1021.8 |
| 20260507051302 | 49 | 7 | 0.0 | 0.0 | 0.00 | 0.00 | 0.00 | 71 | 1021.5 |
| 20260507050758 | 49 | 7 | 0.0 | 0.0 | 0.00 | 0.00 | 0.00 | 71 | 1021.6 |
| 20260507050254 | 49 | 337 | 0.0 | 0.0 | 0.00 | 0.00 | 0.00 | 71 | 1021.7 |
| 20260507045751 | 50 | 341 | 1.7 | 1.7 | 0.00 | 0.01 | 0.01 | 72 | 1021.7 |
| 20260507045247 | 50 | 0 | 1.7 | 1.7 | 0.00 | 0.01 | 0.01 | 72 | 1021.6 |
| 20260507044746 | 50 | 0 | 1.7 | 1.7 | 0.00 | 0.01 | 0.01 | 72 | 1021.6 |
| 20260507044242 | 50 | 0 | 1.7 | 1.7 | 0.00 | 0.01 | 0.01 | 72 | 1021.4 |
| 20260507043738 | 50 | 0 | 1.7 | 1.7 | 0.00 | 0.01 | 0.01 | 72 | 1021.5 |
| 20260507043235 | 50 | 8 | 1.7 | 1.7 | 0.00 | 0.01 | 0.01 | 72 | 1021.3 |
| 20260507042731 | 50 | 8 | 1.7 | 1.7 | 0.00 | 0.01 | 0.01 | 72 | 1021.4 |
| 20260507042226 | 50 | 8 | 1.7 | 1.7 | 0.00 | 0.01 | 0.01 | 72 | 1021.5 |
| 20260507041724 | 50 | 8 | 1.7 | 1.7 | 0.00 | 0.01 | 0.01 | 72 | 1021.4 |
| 20260507041220 | 50 | 8 | 1.7 | 1.7 | 0.00 | 0.01 | 0.01 | 72 | 1021.4 |
| 20260507040717 | 50 | 8 | 1.7 | 1.7 | 0.00 | 0.01 | 0.01 | 72 | 1021.5 |
| 20260507040213 | 50 | 348 | 0.0 | 1.7 | 0.00 | 0.01 | 0.01 | 72 | 1021.5 |
| 20260507035709 | 50 | 348 | 0.0 | 1.7 | 0.00 | 0.01 | 0.01 | 72 | 1021.3 |
| 20260507035205 | 50 | 356 | 1.7 | 2.6 | 0.00 | 0.01 | 0.01 | 72 | 1021.1 |
| 20260507034702 | 50 | 356 | 1.7 | 2.6 | 0.00 | 0.01 | 0.01 | 72 | 1021.5 |
| 20260507034200 | 50 | 356 | 1.7 | 2.6 | 0.00 | 0.01 | 0.01 | 72 | 1021.4 |
| 20260507033658 | 50 | 356 | 1.7 | 2.6 | 0.00 | 0.01 | 0.01 | 72 | 1021.3 |
| 20260507033155 | 50 | 356 | 1.7 | 2.6 | 0.00 | 0.01 | 0.01 | 72 | 1021.3 |
| 20260507032652 | 50 | 10 | 1.7 | 1.7 | 0.00 | 0.01 | 0.01 | 72 | 1021.3 |
| 20260507032148 | 50 | 10 | 1.7 | 1.7 | 0.00 | 0.01 | 0.01 | 72 | 1021.3 |
| 20260507031645 | 50 | 348 | 0.0 | 1.7 | 0.00 | 0.01 | 0.01 | 72 | 1021.3 |
| 20260507031141 | 50 | 348 | 0.0 | 1.7 | 0.00 | 0.01 | 0.01 | 72 | 1021.5 |
| 20260507030638 | 50 | 353 | 0.9 | 1.7 | 0.00 | 0.01 | 0.01 | 72 | 1021.6 |
| 20260507030136 | 51 | 331 | 0.0 | 1.7 | 0.00 | 0.01 | 0.01 | 72 | 1021.4 |
| 20260507025633 | 51 | 306 | 0.0 | 0.9 | 0.00 | 0.01 | 0.01 | 72 | 1021.4 |
| 20260507025130 | 51 | 297 | 0.0 | 0.9 | 0.00 | 0.01 | 0.01 | 72 | 1021.5 |
| 20260507024628 | 53 | 287 | 1.7 | 1.7 | 0.00 | 0.01 | 0.01 | 72 | 1021.1 |
| 20260507024125 | 53 | 287 | 1.7 | 1.7 | 0.00 | 0.01 | 0.01 | 72 | 1021.5 |
| 20260507023620 | 53 | 287 | 1.7 | 1.7 | 0.00 | 0.01 | 0.01 | 72 | 1021.4 |
| 20260507023118 | 53 | 287 | 1.7 | 1.7 | 0.00 | 0.01 | 0.01 | 72 | 1021.4 |
| 20260507022615 | 53 | 287 | 1.7 | 1.7 | 0.00 | 0.01 | 0.01 | 72 | 1021.2 |
| 20260507022110 | 53 | 287 | 1.7 | 1.7 | 0.00 | 0.01 | 0.01 | 72 | 1021.3 |
| 20260507021607 | 53 | 0 | 0.9 | 1.7 | 0.00 | 0.01 | 0.01 | 72 | 1021.3 |
| 20260507021103 | 53 | 0 | 0.9 | 1.7 | 0.00 | 0.01 | 0.01 | 72 | 1021.0 |
| 20260507020602 | 53 | 0 | 0.9 | 1.7 | 0.00 | 0.01 | 0.01 | 72 | 1021.0 |
| 20260507020057 | 54 | 346 | 0.9 | 0.9 | 0.00 | 0.01 | 0.01 | 72 | 1020.8 |
| 20260507015556 | 54 | 346 | 0.9 | 0.9 | 0.00 | 0.01 | 0.01 | 72 | 1020.3 |
| 20260507015053 | 54 | 346 | 0.9 | 0.9 | 0.00 | 0.01 | 0.01 | 72 | 1020.7 |
| 20260507014549 | 55 | 239 | 1.7 | 1.7 | 0.00 | 0.01 | 0.01 | 72 | 1020.7 |
| 20260507014045 | 55 | 239 | 1.7 | 1.7 | 0.00 | 0.01 | 0.01 | 72 | 1021.0 |
| 20260507013542 | 0 | 0.0 | 0.0 | 0.00 | 0.01 | 0.01 | 1021.0 | ||
| 20260507013039 | 0 | 0.0 | 0.0 | 0.00 | 0.01 | 0.01 | 1021.0 | ||
| 20260507012536 | 0 | 0.0 | 0.0 | 0.00 | 0.01 | 0.01 | 1021.0 | ||
| 20260507012032 | 0 | 0.0 | 0.0 | 0.00 | 0.01 | 0.01 | 1020.8 | ||
| 20260507011530 | 0 | 0.0 | 0.0 | 0.00 | 0.01 | 0.01 | 1020.8 | ||
| 20260507011026 | 0 | 0.0 | 0.0 | 0.00 | 0.01 | 0.01 | 1020.5 | ||
| 20260507010520 | 0 | 0.0 | 0.0 | 0.00 | 0.01 | 0.01 | 1020.5 | ||
| 20260507010017 | 0 | 0.0 | 0.0 | 0.00 | 0.01 | 0.01 | 1020.4 | ||
| 20260507005515 | 0 | 0.0 | 0.0 | 0.00 | 0.01 | 0.01 | 1020.2 | ||
| 20260507005011 | 0 | 0.0 | 0.0 | 0.00 | 0.01 | 0.01 | 1020.3 | ||
| 20260507004508 | 0 | 0.0 | 0.0 | 0.00 | 0.01 | 0.01 | 1020.5 | ||
| 20260507004006 | 58 | 25 | 6.1 | 7.0 | 0.00 | 0.01 | 0.01 | 72 | 1020.4 |
| 20260507003501 | 58 | 25 | 6.1 | 7.0 | 0.00 | 0.01 | 0.01 | 72 | 1020.6 |
| 20260507002955 | 58 | 25 | 6.1 | 7.0 | 0.00 | 0.01 | 0.01 | 72 | 1020.6 |
| 20260507002453 | 58 | 25 | 6.1 | 7.0 | 0.00 | 0.01 | 0.01 | 72 | 1021.1 |
| 20260507001949 | 58 | 25 | 6.1 | 7.0 | 0.00 | 0.01 | 0.01 | 72 | 1020.7 |
| 20260507001446 | 58 | 25 | 6.1 | 7.0 | 0.00 | 0.01 | 0.01 | 72 | 1020.6 |
| 20260507000944 | 58 | 25 | 6.1 | 7.0 | 0.00 | 0.01 | 0.01 | 72 | 1020.6 |
| 20260507000439 | 58 | 25 | 6.1 | 7.0 | 0.00 | 0.01 | 0.01 | 72 | 1020.2 |
| 20260506235934 | 58 | 25 | 6.1 | 7.0 | 0.00 | 0.01 | 0.01 | 72 | 1020.1 |
| 20260506235432 | 58 | 25 | 6.1 | 7.0 | 0.00 | 0.01 | 0.01 | 72 | 1019.8 |
| 20260506234927 | 58 | 25 | 6.1 | 7.0 | 0.00 | 0.01 | 0.01 | 72 | 1019.8 |
| 20260506234426 | 58 | 25 | 6.1 | 7.0 | 0.00 | 0.01 | 0.01 | 72 | 1019.6 |
| 20260506233923 | 59 | 11 | 2.6 | 3.5 | 0.00 | 0.01 | 0.01 | 72 | 1019.7 |
| 20260506233419 | 59 | 11 | 2.6 | 3.5 | 0.00 | 0.01 | 0.01 | 72 | 1019.7 |
| 20260506232916 | 59 | 11 | 2.6 | 3.5 | 0.00 | 0.01 | 0.01 | 72 | 1019.4 |
| 20260506232412 | 58 | 46 | 3.5 | 5.2 | 0.00 | 0.01 | 0.01 | 72 | 1019.7 |
| 20260506231908 | 58 | 23 | 3.5 | 6.1 | 0.00 | 0.01 | 0.01 | 72 | 1019.9 |
| 20260506231406 | 59 | 12 | 4.3 | 4.3 | 0.00 | 0.01 | 0.01 | 73 | 1019.6 |
| 20260506230903 | 58 | 5 | 7.0 | 8.7 | 0.00 | 0.01 | 0.01 | 72 | 1019.6 |
| 20260506230400 | 58 | 25 | 7.0 | 8.7 | 0.00 | 0.01 | 0.01 | 72 | 1019.4 |
| 20260506225856 | 59 | 23 | 7.8 | 7.8 | 0.00 | 0.01 | 0.01 | 72 | 1019.5 |
| 20260506225353 | 59 | 61 | 7.0 | 7.8 | 0.00 | 0.01 | 0.01 | 72 | 1019.3 |
| 20260506224850 | 59 | 12 | 0.9 | 10.4 | 0.00 | 0.01 | 0.01 | 73 | 1018.9 |
| 20260506224348 | 59 | 20 | 2.6 | 6.1 | 0.00 | 0.01 | 0.01 | 72 | 1018.8 |
| 20260506223844 | 59 | 345 | 4.3 | 6.1 | 0.00 | 0.01 | 0.01 | 72 | 1019.1 |
| 20260506223339 | 59 | 57 | 1.7 | 7.8 | 0.00 | 0.01 | 0.01 | 73 | 1019.3 |
| 20260506222836 | 59 | 96 | 1.7 | 10.4 | 0.00 | 0.01 | 0.01 | 73 | 1019.1 |
| 20260506222331 | 59 | 7 | 1.7 | 8.7 | 0.00 | 0.01 | 0.01 | 73 | 1019.1 |
| 20260506221830 | 60 | 48 | 4.3 | 4.3 | 0.00 | 0.01 | 0.01 | 73 | 1019.1 |
| 20260506221327 | 59 | 23 | 7.0 | 11.3 | 0.00 | 0.01 | 0.01 | 73 | 1019.1 |
| 20260506220825 | 59 | 67 | 3.5 | 9.6 | 0.00 | 0.01 | 0.01 | 73 | 1019.2 |
| 20260506220320 | 60 | 95 | 0.0 | 1.7 | 0.00 | 0.01 | 0.01 | 73 | 1018.8 |
| 20260506215817 | 60 | 27 | 5.2 | 6.1 | 0.00 | 0.01 | 0.01 | 73 | 1018.7 |
| 20260506215312 | 59 | 327 | 3.5 | 4.3 | 0.00 | 0.01 | 0.01 | 73 | 1019.2 |
| 20260506214808 | 59 | 22 | 2.6 | 10.4 | 0.00 | 0.01 | 0.01 | 73 | 1019.2 |
| 20260506214305 | 60 | 55 | 3.5 | 4.3 | 0.00 | 0.01 | 0.01 | 73 | 1019.5 |
| 20260506213804 | 59 | 25 | 2.6 | 7.8 | 0.00 | 0.01 | 0.01 | 73 | 1019.6 |
| 20260506213300 | 59 | 165 | 0.9 | 3.5 | 0.00 | 0.01 | 0.01 | 73 | 1019.6 |
| 20260506212758 | 59 | 12 | 2.6 | 5.2 | 0.00 | 0.01 | 0.01 | 73 | 1019.4 |
| 20260506212253 | 59 | 26 | 2.6 | 3.5 | 0.00 | 0.01 | 0.01 | 73 | 1019.4 |
| 20260506211749 | 59 | 69 | 6.1 | 6.1 | 0.00 | 0.01 | 0.01 | 73 | 1019.7 |
| 20260506211245 | 59 | 70 | 0.0 | 4.3 | 0.00 | 0.01 | 0.01 | 73 | 1019.7 |
| 20260506210742 | 59 | 347 | 2.6 | 4.3 | 0.00 | 0.01 | 0.01 | 73 | 1019.9 |
| 20260506210239 | 60 | 16 | 1.7 | 7.0 | 0.00 | 0.01 | 0.01 | 73 | 1020.0 |
| 20260506205736 | 59 | 54 | 0.9 | 3.5 | 0.00 | 0.01 | 0.01 | 73 | 1020.2 |
| 20260506205232 | 59 | 346 | 2.6 | 5.2 | 0.00 | 0.01 | 0.01 | 72 | 1020.3 |
| 20260506204729 | 59 | 90 | 4.3 | 9.6 | 0.00 | 0.01 | 0.01 | 73 | 1020.3 |
| 20260506204226 | 59 | 354 | 3.5 | 5.2 | 0.00 | 0.01 | 0.01 | 72 | 1020.2 |
| 20260506203724 | 59 | 37 | 2.6 | 4.3 | 0.00 | 0.01 | 0.01 | 72 | 1020.3 |
| 20260506203215 | 59 | 270 | 4.3 | 5.2 | 0.00 | 0.01 | 0.01 | 73 | 1020.8 |
| 20260506202713 | 59 | 17 | 3.5 | 4.3 | 0.00 | 0.01 | 0.01 | 72 | 1020.7 |
| 20260506202209 | 59 | 324 | 2.6 | 5.2 | 0.00 | 0.01 | 0.01 | 72 | 1020.5 |
| 20260506201706 | 59 | 295 | 6.1 | 6.1 | 0.00 | 0.01 | 0.01 | 73 | 1020.6 |
| 20260506201203 | 59 | 36 | 1.7 | 2.6 | 0.00 | 0.01 | 0.01 | 73 | 1020.8 |
| 20260506200659 | 58 | 90 | 5.2 | 7.0 | 0.00 | 0.01 | 0.01 | 72 | 1020.6 |
| 20260506200156 | 59 | 115 | 1.7 | 1.7 | 0.00 | 0.01 | 0.01 | 72 | 1020.8 |
| 20260506195653 | 58 | 31 | 5.2 | 9.6 | 0.00 | 0.01 | 0.01 | 72 | 1020.9 |
| 20260506195149 | 59 | 320 | 4.3 | 4.3 | 0.00 | 0.01 | 0.01 | 73 | 1020.9 |
| 20260506194647 | 59 | 23 | 2.6 | 7.8 | 0.00 | 0.01 | 0.01 | 73 | 1020.7 |
| 20260506194143 | 58 | 19 | 3.5 | 8.7 | 0.00 | 0.01 | 0.01 | 72 | 1020.5 |
| 20260506193641 | 59 | 63 | 2.6 | 5.2 | 0.00 | 0.01 | 0.01 | 73 | 1020.5 |
| 20260506193138 | 59 | 25 | 5.2 | 6.1 | 0.00 | 0.01 | 0.01 | 73 | 1020.6 |
| 20260506192634 | 59 | 77 | 6.1 | 7.8 | 0.00 | 0.01 | 0.01 | 72 | 1020.8 |
| 20260506192130 | 60 | 125 | 1.7 | 3.5 | 0.00 | 0.01 | 0.01 | 73 | 1020.9 |
| 20260506191627 | 60 | 308 | 3.5 | 3.5 | 0.00 | 0.01 | 0.01 | 73 | 1021.0 |
| 20260506191123 | 59 | 34 | 1.7 | 7.0 | 0.00 | 0.01 | 0.01 | 73 | 1020.8 |
| 20260506190621 | 60 | 8 | 4.3 | 5.2 | 0.00 | 0.01 | 0.01 | 73 | 1020.9 |
| 20260506190118 | 59 | 289 | 0.0 | 7.8 | 0.00 | 0.01 | 0.01 | 73 | 1020.7 |
| 20260506185615 | 59 | 9 | 7.0 | 11.3 | 0.00 | 0.01 | 0.01 | 72 | 1020.8 |
| 20260506185111 | 58 | 81 | 1.7 | 4.3 | 0.00 | 0.01 | 0.01 | 72 | 1020.9 |
| 20260506184609 | 58 | 37 | 5.2 | 6.1 | 0.00 | 0.01 | 0.01 | 72 | 1021.0 |
| 20260506184106 | 58 | 90 | 3.5 | 5.2 | 0.00 | 0.01 | 0.01 | 72 | 1021.0 |
| 20260506183602 | 58 | 63 | 3.5 | 3.5 | 0.00 | 0.01 | 0.01 | 72 | 1021.1 |
| 20260506183058 | 58 | 34 | 3.5 | 7.0 | 0.00 | 0.01 | 0.01 | 72 | 1021.0 |
| 20260506182556 | 58 | 342 | 2.6 | 7.8 | 0.00 | 0.01 | 0.01 | 72 | 1021.4 |
| 20260506182053 | 58 | 21 | 7.8 | 8.7 | 0.00 | 0.01 | 0.01 | 72 | 1021.6 |
| 20260506181551 | 58 | 261 | 0.0 | 4.3 | 0.00 | 0.01 | 0.01 | 72 | 1021.2 |
| 20260506181047 | 57 | 355 | 0.9 | 7.8 | 0.00 | 0.01 | 0.01 | 72 | 1021.2 |
| 20260506180544 | 57 | 16 | 2.6 | 6.1 | 0.00 | 0.01 | 0.01 | 72 | 1021.1 |
| 20260506180040 | 57 | 70 | 4.3 | 6.1 | 0.00 | 0.01 | 0.01 | 72 | 1020.9 |
| 20260506175537 | 57 | 60 | 5.2 | 10.4 | 0.00 | 0.01 | 0.01 | 72 | 1020.6 |
| 20260506175033 | 56 | 86 | 4.3 | 6.1 | 0.00 | 0.01 | 0.01 | 72 | 1020.6 |
| 20260506174532 | 56 | 44 | 6.1 | 11.3 | 0.00 | 0.01 | 0.01 | 72 | 1020.7 |
| 20260506174027 | 56 | 57 | 5.2 | 8.7 | 0.00 | 0.01 | 0.01 | 72 | 1020.8 |
| 20260506173526 | 56 | 12 | 6.1 | 7.8 | 0.00 | 0.01 | 0.01 | 72 | 1021.0 |
| 20260506173022 | 56 | 358 | 3.5 | 5.2 | 0.00 | 0.01 | 0.01 | 72 | 1021.1 |
| 20260506172519 | 56 | 19 | 3.5 | 6.1 | 0.00 | 0.01 | 0.01 | 72 | 1021.3 |
| 20260506172015 | 55 | 28 | 7.8 | 9.6 | 0.00 | 0.01 | 0.01 | 72 | 1021.3 |
| 20260506171513 | 55 | 328 | 7.0 | 9.6 | 0.00 | 0.01 | 0.01 | 72 | 1021.3 |
| 20260506171010 | 56 | 30 | 4.3 | 4.3 | 0.00 | 0.01 | 0.01 | 72 | 1021.3 |
| 20260506170508 | 56 | 356 | 6.1 | 6.1 | 0.00 | 0.01 | 0.01 | 72 | 1021.0 |
| 20260506170000 | 56 | 77 | 0.9 | 1.7 | 0.00 | 0.01 | 0.01 | 72 | 1021.2 |
| 20260506165458 | 56 | 36 | 1.7 | 4.3 | 0.00 | 0.01 | 0.01 | 72 | 1021.3 |
| 20260506164954 | 55 | 63 | 4.3 | 9.6 | 0.00 | 0.01 | 0.01 | 72 | 1021.5 |
| 20260506164450 | 55 | 314 | 4.3 | 7.0 | 0.00 | 0.01 | 0.01 | 72 | 1021.5 |
| 20260506163948 | 55 | 95 | 5.2 | 8.7 | 0.00 | 0.01 | 0.01 | 72 | 1021.4 |
| 20260506163443 | 55 | 59 | 7.8 | 9.6 | 0.00 | 0.01 | 0.01 | 72 | 1021.4 |
| 20260506162938 | 54 | 28 | 7.8 | 10.4 | 0.00 | 0.01 | 0.01 | 72 | 1021.2 |
| 20260506162436 | 53 | 45 | 6.1 | 7.8 | 0.00 | 0.01 | 0.01 | 72 | 1021.8 |
| 20260506161928 | 53 | 63 | 1.7 | 3.5 | 0.00 | 0.01 | 0.01 | 72 | 1021.6 |
| 20260506161426 | 53 | 63 | 1.7 | 3.5 | 0.00 | 0.01 | 0.01 | 72 | 1021.7 |
| 20260506160923 | 53 | 343 | 4.3 | 4.3 | 0.00 | 0.01 | 0.01 | 72 | 1021.3 |
| 20260506160420 | 53 | 16 | 4.3 | 9.6 | 0.00 | 0.01 | 0.01 | 72 | 1021.3 |
| 20260506155917 | 54 | 14 | 1.7 | 9.6 | 0.00 | 0.01 | 0.01 | 72 | 1021.3 |
| 20260506155414 | 53 | 14 | 3.5 | 8.7 | 0.00 | 0.01 | 0.01 | 72 | 1021.2 |
| 20260506153536 | 52 | 22 | 7.8 | 7.8 | 0.00 | 0.01 | 0.01 | 72 | 1021.0 |
| 20260506153034 | 52 | 22 | 6.1 | 6.1 | 0.00 | 0.01 | 0.01 | 72 | 1020.7 |
| 20260506152531 | 52 | 21 | 5.2 | 6.1 | 0.00 | 0.01 | 0.01 | 72 | 1020.6 |
| 20260506152029 | 51 | 354 | 4.3 | 6.1 | 0.00 | 0.01 | 0.01 | 72 | 1020.8 |
| 20260506151526 | 50 | 47 | 2.6 | 5.2 | 0.00 | 0.01 | 0.01 | 72 | 1021.1 |
| 20260506151023 | 50 | 47 | 2.6 | 6.1 | 0.00 | 0.01 | 0.01 | 72 | 1020.9 |
| 20260506150520 | 51 | 346 | 2.6 | 5.2 | 0.00 | 0.01 | 0.01 | 72 | 1021.1 |
| 20260506150017 | 50 | 29 | 4.3 | 6.1 | 0.00 | 0.01 | 0.01 | 72 | 1020.8 |
| 20260506145513 | 50 | 22 | 1.7 | 2.6 | 0.00 | 0.01 | 0.01 | 72 | 1021.0 |
| 20260506145011 | 48 | 71 | 2.6 | 5.2 | 0.00 | 0.01 | 0.01 | 71 | 1020.8 |
| 20260506144507 | 48 | 71 | 2.6 | 5.2 | 0.00 | 0.01 | 0.01 | 71 | 1021.0 |
| 20260506144005 | 48 | 71 | 2.6 | 5.2 | 0.00 | 0.01 | 0.01 | 71 | 1020.8 |
| 20260506143502 | 48 | 71 | 2.6 | 5.2 | 0.00 | 0.01 | 0.01 | 71 | 1020.8 |
| 20260506143001 | 48 | 71 | 2.6 | 5.2 | 0.00 | 0.01 | 0.01 | 71 | 1021.1 |
| 20260506142458 | 48 | 71 | 2.6 | 5.2 | 0.00 | 0.01 | 0.01 | 71 | 1020.7 |
| 20260506141956 | 48 | 71 | 2.6 | 5.2 | 0.00 | 0.01 | 0.01 | 71 | 1020.8 |
| 20260506141453 | 48 | 71 | 2.6 | 5.2 | 0.00 | 0.01 | 0.01 | 71 | 1021.0 |
| 20260506140952 | 48 | 71 | 2.6 | 5.2 | 0.00 | 0.01 | 0.01 | 71 | 1020.8 |
| 20260506140448 | 48 | 40 | 2.6 | 6.1 | 0.00 | 0.01 | 0.01 | 71 | 1020.7 |
| 20260506135945 | 0 | 0.0 | 0.0 | 0.00 | 0.01 | 0.01 | 1020.8 | ||
| 20260506135443 | 46 | 27 | 7.8 | 7.8 | 0.00 | 0.01 | 0.01 | 71 | 1020.7 |
| 20260506134938 | 46 | 27 | 7.8 | 7.8 | 0.00 | 0.01 | 0.01 | 71 | 1020.7 |
| 20260506134435 | 46 | 27 | 7.8 | 7.8 | 0.00 | 0.01 | 0.01 | 71 | 1020.6 |
| 20260506133932 | 46 | 27 | 7.8 | 7.8 | 0.00 | 0.01 | 0.01 | 71 | 1020.5 |
| 20260506133429 | 46 | 27 | 7.8 | 7.8 | 0.00 | 0.01 | 0.01 | 71 | 1020.5 |
| 20260506132926 | 46 | 27 | 7.8 | 7.8 | 0.00 | 0.01 | 0.01 | 71 | 1020.7 |
| 20260506132422 | 46 | 27 | 7.8 | 7.8 | 0.00 | 0.01 | 0.01 | 71 | 1020.6 |
| 20260506131920 | 46 | 27 | 7.8 | 7.8 | 0.00 | 0.01 | 0.01 | 71 | 1020.8 |
| 20260506131416 | 46 | 27 | 7.8 | 7.8 | 0.00 | 0.01 | 0.01 | 71 | 1020.6 |
| 20260506130914 | 46 | 27 | 7.8 | 7.8 | 0.00 | 0.01 | 0.01 | 71 | 1020.4 |
| 20260506130410 | 46 | 27 | 7.8 | 7.8 | 0.00 | 0.01 | 0.01 | 71 | 1020.7 |
| 20260506125908 | 46 | 27 | 7.8 | 7.8 | 0.00 | 0.01 | 0.01 | 71 | 1020.5 |
| 20260506125406 | 0 | 0.0 | 0.0 | 0.00 | 0.01 | 0.01 | 1020.5 | ||
| 20260506124904 | 0 | 0.0 | 0.0 | 0.00 | 0.01 | 0.01 | 1020.2 | ||
| 20260506124401 | 0 | 0.0 | 0.0 | 0.00 | 0.01 | 0.01 | 1020.2 | ||
| 20260506123859 | 0 | 0.0 | 0.0 | 0.00 | 0.01 | 0.01 | 1020.4 | ||
| 20260506123357 | 0 | 0.0 | 0.0 | 0.00 | 0.01 | 0.01 | 1020.2 | ||
| 20260506122854 | 0 | 0.0 | 0.0 | 0.00 | 0.01 | 0.01 | 1019.9 | ||
| 20260506122350 | 0 | 0.0 | 0.0 | 0.00 | 0.01 | 0.01 | 1020.4 | ||
| 20260506121849 | 0 | 0.0 | 0.0 | 0.00 | 0.01 | 0.01 | 1020.1 | ||
| 20260506121346 | 0 | 0.0 | 0.0 | 0.00 | 0.01 | 0.01 | 1020.1 | ||
| 20260506120842 | 0 | 0.0 | 0.0 | 0.00 | 0.01 | 0.01 | 1020.1 | ||
| 20260506120340 | 0 | 0.0 | 0.0 | 0.00 | 0.01 | 0.01 | 1019.7 | ||
| 20260506115837 | 0 | 0.0 | 0.0 | 0.00 | 0.01 | 0.01 | 1019.5 | ||
| 20260506115336 | 0 | 0.0 | 0.0 | 0.00 | 0.01 | 0.01 | 1019.6 | ||
| 20260506114833 | 0 | 0.0 | 0.0 | 0.00 | 0.01 | 0.01 | 1019.3 | ||
| 20260506114331 | 0 | 0.0 | 0.0 | 0.00 | 0.01 | 0.01 | 1019.3 | ||
| 20260506113829 | 0 | 0.0 | 0.0 | 0.00 | 0.01 | 0.01 | 1018.8 | ||
| 20260506113326 | 0 | 0.0 | 0.0 | 0.00 | 0.01 | 0.01 | 1018.8 | ||
| 20260506112823 | 0 | 0.0 | 0.0 | 0.00 | 0.01 | 0.01 | 1018.7 | ||
| 20260506112320 | 0 | 0.0 | 0.0 | 0.00 | 0.01 | 0.01 | 1018.5 | ||
| 20260506111817 | 0 | 0.0 | 0.0 | 0.00 | 0.01 | 0.01 | 1018.3 | ||
| 20260506111315 | 0 | 0.0 | 0.0 | 0.00 | 0.01 | 0.01 | 1018.0 | ||
| 20260506110813 | 0 | 0.0 | 0.0 | 0.00 | 0.01 | 0.01 | 1018.1 | ||
| 20260506110309 | 0 | 0.0 | 0.0 | 0.00 | 0.01 | 0.01 | 1017.9 | ||
| 20260506105806 | 0 | 0.0 | 0.0 | 0.00 | 0.01 | 0.01 | 1017.9 | ||
| 20260506105305 | 0 | 0.0 | 0.0 | 0.00 | 0.01 | 0.01 | 1017.7 | ||
| 20260506104801 | 0 | 0.0 | 0.0 | 0.00 | 0.01 | 0.01 | 1017.5 | ||
| 20260506104258 | 0 | 0.0 | 0.0 | 0.00 | 0.01 | 0.01 | 1017.8 | ||
| 20260506103755 | 0 | 0.0 | 0.0 | 0.00 | 0.01 | 0.01 | 1017.8 | ||
| 20260506103253 | 0 | 0.0 | 0.0 | 0.00 | 0.01 | 0.01 | 1017.8 | ||
| 20260506102750 | 0 | 0.0 | 0.0 | 0.00 | 0.01 | 0.01 | 1017.9 | ||
| 20260506102248 | 0 | 0.0 | 0.0 | 0.00 | 0.01 | 0.01 | 1017.7 | ||
| 20260506101745 | 0 | 0.0 | 0.0 | 0.00 | 0.01 | 0.01 | 1017.7 | ||
| 20260506101241 | 0 | 0.0 | 0.0 | 0.00 | 0.01 | 0.01 | 1017.8 | ||
| 20260506100739 | 0 | 0.0 | 0.0 | 0.00 | 0.01 | 0.01 | 1017.4 | ||
| 20260506100237 | 0 | 0.0 | 0.0 | 0.00 | 0.01 | 0.01 | 1017.3 | ||
| 20260506095736 | 0 | 0.0 | 0.0 | 0.00 | 0.01 | 0.01 | 1017.4 | ||
| 20260506095232 | 0 | 0.0 | 0.0 | 0.00 | 0.01 | 0.01 | 1017.6 | ||
| 20260506094729 | 0 | 0.0 | 0.0 | 0.00 | 0.01 | 0.01 | 1017.8 | ||
| 20260506094227 | 0 | 0.0 | 0.0 | 0.00 | 0.01 | 0.01 | 1017.7 | ||
| 20260506093726 | 0 | 0.0 | 0.0 | 0.00 | 0.01 | 0.01 | 1018.0 | ||
| 20260506093222 | 0 | 0.0 | 0.0 | 0.00 | 0.01 | 0.01 | 1018.1 | ||
| 20260506092720 | 0 | 0.0 | 0.0 | 0.00 | 0.01 | 0.01 | 1018.0 | ||
| 20260506092217 | 0 | 0.0 | 0.0 | 0.00 | 0.01 | 0.01 | 1017.7 | ||
| 20260506091715 | 0 | 0.0 | 0.0 | 0.00 | 0.01 | 0.01 | 1017.6 | ||
| 20260506091212 | 0 | 0.0 | 0.0 | 0.00 | 0.01 | 0.01 | 1017.5 | ||
| 20260506090710 | 0 | 0.0 | 0.0 | 0.00 | 0.01 | 0.01 | 1017.5 | ||
| 20260506090206 | 0 | 0.0 | 0.0 | 0.00 | 0.01 | 0.01 | 1017.2 | ||
| 20260506085703 | 0 | 0.0 | 0.0 | 0.00 | 0.01 | 0.01 | 1017.0 | ||
| 20260506085159 | 0 | 0.0 | 0.0 | 0.00 | 0.01 | 0.01 | 1017.1 | ||
| 20260506084656 | 0 | 0.0 | 0.0 | 0.00 | 0.01 | 0.01 | 1016.6 | ||
| 20260506084153 | 0 | 0.0 | 0.0 | 0.00 | 0.01 | 0.01 | 1016.1 | ||
| 20260506083649 | 0 | 0.0 | 0.0 | 0.00 | 0.01 | 0.01 | 1016.9 | ||
| 20260506083148 | 0 | 0.0 | 0.0 | 0.00 | 0.01 | 0.01 | 1017.2 | ||
| 20260506082644 | 0 | 0.0 | 0.0 | 0.00 | 0.01 | 0.01 | 1017.0 | ||
| 20260506082139 | 0 | 0.0 | 0.0 | 0.00 | 0.01 | 0.01 | 1017.3 | ||
| 20260506081638 | 0 | 0.0 | 0.0 | 0.00 | 0.01 | 0.01 | 1017.3 | ||
| 20260506081135 | 0 | 0.0 | 0.0 | 0.00 | 0.01 | 0.01 | 1017.3 | ||
| 20260506080633 | 0 | 0.0 | 0.0 | 0.00 | 0.01 | 0.01 | 1017.6 | ||
| 20260506080129 | 0 | 0.0 | 0.0 | 0.00 | 0.01 | 0.01 | 1017.4 | ||
| 20260506073113 | 44 | 28 | 7.8 | 7.8 | 0.00 | 0.01 | 0.01 | 71 | 1016.7 |
| 20260506072609 | 44 | 28 | 7.8 | 7.8 | 0.00 | 0.01 | 0.01 | 71 | 1016.6 |
| 20260506072108 | 44 | 28 | 7.8 | 7.8 | 0.00 | 0.01 | 0.01 | 71 | 1016.5 |
| 20260506071605 | 44 | 28 | 7.8 | 7.8 | 0.00 | 0.01 | 0.01 | 71 | 1016.8 |
| 20260506071103 | 44 | 28 | 7.8 | 7.8 | 0.00 | 0.01 | 0.01 | 71 | 1016.5 |
| 20260506070600 | 44 | 28 | 7.8 | 7.8 | 0.00 | 0.01 | 0.01 | 71 | 1016.8 |
| 20260506062033 | 44 | 50 | 2.6 | 7.8 | 0.00 | 0.01 | 0.01 | 71 | 1016.3 |
| 20260506061529 | 44 | 50 | 2.6 | 7.8 | 0.00 | 0.01 | 0.01 | 71 | 1016.1 |